Regional Weather Roundup
Issued by NWS Goodland, KS

Home | Current Version | Previous Version | Text Only | Print | Product List | Glossary Off
Versions: 1 2 3 4 5 6 7 8 9 10 11 12 13 14 15 16 17 18 19 20 21 22 23 24 25 26 27 28 29 30 31 32 33 34 35 36 37 38 39 40 41 42 43 44 45 46 47 48 49 50

939
ASUS43 KGLD 241059
RWRGLD

GOODLAND FORECAST AREA HOURLY WEATHER ROUNDUP
NATIONAL WEATHER SERVICE GOODLAND KS
500 AM MDT TUE APR 24 2018

...OFFICIAL OBSERVATIONS...

CITY           SKY/WX    TMP DP  RH WIND       PRES   REMARKS
GOODLAND KS    CLOUDY    40  39  97 N20G29    30.23R
HILL CITY KS   CLOUDY    49  44  83 NW8       30.16R
IMPERIAL NEB   LGT RAIN  40  39  97 NW21G30   30.25R
MCCOOK NEB     CLOUDY    46  41  82 NW22G29   30.21R
AKRON CO       FLURRIES  33  33 100 N17       30.30R
BURLINGTON CO  CLOUDY    39  37  92 N20G30    30.26R
LIMON CO       CLOUDY    34  33  96 N24G38    30.28R
$$

...UNOFFICIAL OBSERVATIONS...

CITY           SKY/WX    TMP DP  RH WIND       PRES   REMARKS
NORTON KS      CLOUDY    52  43  71 NW9       30.15
KIT CARSON CO    N/A     40  36  85 MISG        N/A
YUMA CO        CLOUDY    34  32  93 NW16G24   30.29R
$$




USA.gov is the U.S. government's official web portal to all federal, state and local government web resources and services.